Hourly Data Report for October 10, 2015

All times are specified in Local Standard Time (LST). Add 1 hour to adjust for Daylight Saving Time where and when it is observed.

GJOA HAVEN A
NUNAVUT

68°38'08.000" N
95°51'01.000" W
46.90 m
2302337
71597
YHK

Download Data

Hourly Data (October 2015)
Hourly Data Report for October 10, 2015
Temp Definition
°C
Dew Point Temp Definition
°C
Rel Hum Definition
%
Wind Dir Definition
10's deg

Wind Spd Definition
km/h
Visibility Definition
km
Stn Press Definition
kPa
Hmdx Definition


Wind Chill Definition


Weather Definition


TIME
00:00 Legend Double Dagger -5.9 -8.4 83 20 35 16.1 100.26   -15 Freezing Rain
01:00 Legend Double Dagger -5.9 -7.9 86 21 37 3.6 100.25   -15 Freezing Rain,Fog
02:00 Legend Double Dagger -6.1 -7.6 89 21 41 2.4 100.21   -16 Snow
03:00 Legend Double Dagger -6.2 -7.3 92 20 37 2.4 100.17   -15 Fog
04:00 Legend Double Dagger -6.1 -7.7 89 20 39 6.4 100.16   -15 Freezing Rain,Fog
05:00 Legend Double Dagger -5.8 -7.3 89 20 39 4.8 100.15   -15 Freezing Rain,Fog
06:00 Legend Double Dagger -5.7 -7.3 89 20 35 4.8 100.13   -14 Freezing Rain,Fog
07:00 Legend Double Dagger -5.7 -6.9 91 20 37 2.4 100.11   -15 Freezing Rain,Fog
08:00 Legend Double Dagger -5.6 -7.0 90 20 34 4.8 100.11   -14 Freezing Rain,Fog
09:00 Legend Double Dagger -5.7 -7.3 89 20 32 4.8 100.11   -14 Freezing Rain,Fog
10:00 Legend Double Dagger -5.7 -7.5 87 20 26 12.9 100.11   -13 Freezing Rain
11:00 Legend Double Dagger -5.7 -7.1 90 20 28 2.8 100.09   -14 Snow
12:00 Legend Double Dagger -5.7 -7.1 90 17 30 4.8 100.08   -14 Freezing Rain,Snow
13:00 Legend Double Dagger -6.0 -7.9 87 16 26 8.1 100.07   -14 Freezing Rain,Fog
14:00 Legend Double Dagger -6.3 -8.4 85 16 24 16.1 100.06   -14 LegendNANA
15:00 Legend Double Dagger -6.9 -8.6 88 16 26 16.1 100.04   -15 LegendNANA
16:00 Legend Double Dagger -7.2 -8.7 89 17 24 16.1 100.02   -15 LegendNANA
17:00 Legend Double Dagger -7.3 -9.3 86 16 30 16.1 100.02   -16 LegendNANA
18:00 Legend Double Dagger -7.6 -9.7 85 16 30 16.1 100.01   -16 LegendNANA
19:00 Legend Double Dagger -7.7 -10.1 83 16 26 16.1 99.99   -16 LegendNANA
20:00 Legend Double Dagger -7.6 -10.0 83 16 26 16.1 99.97   -16 LegendNANA
21:00 Legend Double Dagger -7.9 -10.1 84 16 24 16.1 99.96   -16 LegendNANA
22:00 Legend Double Dagger -7.3 -10.3 80 15 22 16.1 99.96   -15 LegendNANA
23:00 Legend Double Dagger -7.0 -10.1 79 15 21 16.1 99.96   -14 LegendNANA

Notes on Data Quality.

Legend

  • E = Estimated
  • M = Missing
  • NA = Not Available
  • ‡ = Partner data that is not subject to review by the National Climate Archives
Date modified: